ATLAS 5 CENTAUR DEB, 44674

Orbit data source: Space-Track

ATLAS 5 CENTAUR DEB, 44674 is space debris in HEO originally from a launch on Wed, 17 Oct 2018 UTC launched from the Air Force Eastern Test Range (AFETR). Debris objects in space refer to the collection of defunct objects orbiting the Earth. Examples of debris include non-operational satellites, rocket bodies, and fragments generated from explosions, collisions, or faulty payload assembly.

Loading next visibility...
Identifier
44674, 2018-079AL
Orbit
HEO
Last TLE update
1 week ago
Origin
Manufacturer
ULA Decatur
Mission
Spacecraft
Bus & Motor
Unknown
Mass
Unknown
Launch date (UTC)
2018-10-17 (7 years ago)
Launch vehicle
Unknown
Launch site
Air Force Eastern Test Range (AFETR)
Object type
Payload
Rocket body
Debris
Shape & HBR
Unknown
Radar Cross Section
RCS unknown

Expand to show TLE details & history

TLE from 1 week ago
0 ATLAS 5 CENTAUR DEB
1 44674U 18079AL  25122.13699933 -.00000118  00000-0  00000-0 0  9996
2 44674  12.5157  74.4826 4420696 261.8682  47.3521  1.93808292 41574
Epoch: 2025-05-02T03:17Z
Definitive object data (Epoch: 2025-05-02T03:17:16.742Z)
Latitude
-0.00001°
Longitude
164.78139°
Altitude
16,931.29 km
Speed
4.42 km/s
True Right ascension
04h 57m 35s
True Declination
0° 00' 00"
Sunlit
Object was in daylight at TLE epoch
Visualization TLE readout
Latitude
-11.00243°
Longitude
44.97511°
Altitude
9,149.082 km
Speed
6.056 km/s
Apparent Right ascension
22h 09m 18s
Apparent Declination
-23° 36' 02"
Sunlit
Object is in daylight
Visualization observer readout
Local Sidereal Time
14:54:50
Azimuth
97.828° ESE
Elevation
-28.766°
Doppler factor
1
Orbital elements
Apogee altitude
32,811.7 km
Perigee altitude
8,784.239 km
Semi-major axis
27,176.106 km
Eccentricity
0.4420696
Inclination
12.5157°
RAAN
74.4826°
Arg. of periapsis
261.8682°
True anomaly
98.18868°
Mean anomaly
47.3521°
Eccentric anomaly
71.35094°
Mean motion
0.48446 °/min
BSTAR
Unknown
Orbital period
743.09 mins
Loading maneuver chart data...
Loading SW <> Apogee altitude chart data...

ATLAS 5 CENTAUR DEB Visibility forecast

Observer location: undefined°, undefined°

Span
Click to sort rows by Start time (UTC) header in descending order
Start Az.
Max El. time (UTC)
Max El. Az.
Max El.
End time (UTC)
End Az.
640 mins2025-05-09 20:05:57.499Z220.881° SW2025-05-10 02:29:57.499Z163.214° S39.796°2025-05-10 06:45:57.499Z129.475° SE
|